FW1075 Bellerose NY US current weather conditions

sailwx.info

Wind from 273 at 1 knots gusting 5

Air temperature 2.8° C
Dewpoint -4.9° C

Last reported at 2019-Dec-07 16:01 UTC.
Time now 2019-Dec-07 16:41 UTC

Location: N 40°44' W 073°43'.
View on Google Maps.

See reports from other nearby stations

  
Tides and Currents Weather Stations Pressure Air Temp Water Temp Dewpoint Dewpoint Depression Visibility Wind Speed Wind Dir Waves Ship Positions
date/time (UTC)wind fromknots sea level pressurealtimeterstation pressurevisibilityair tempwater tempwave heightnotes
2019-Dec-07 16:01 273 1 gusting 5 2.8
2019-Dec-07 15:51 262 3 gusting 7 2.2
2019-Dec-07 15:41 290 1 gusting 4 2.8
2019-Dec-07 15:31 267 1 gusting 7 2.2
2019-Dec-07 15:21 273 1 gusting 6 2.2
2019-Dec-07 15:11 312 1 gusting 4 2.2
2019-Dec-07 15:01 314 2 gusting 6 1.7
2019-Dec-07 14:51 308 2 gusting 6 1.7
2019-Dec-07 14:41 299 1 gusting 5 1.1
2019-Dec-07 14:31 289 0 gusting 6 1.7
2019-Dec-07 14:21 292 0 gusting 5 1.1
2019-Dec-07 14:11 323 0 gusting 2 1.1
2019-Dec-07 14:01 308 0 gusting 5 0.6
2019-Dec-07 13:51 301 0 gusting 4 0.6
2019-Dec-07 13:41 288 0 gusting 5 0.6
2019-Dec-07 13:31 283 0 gusting 2 0.6
2019-Dec-07 13:21 292 2 gusting 6 0.6
2019-Dec-07 13:11 290 2 gusting 6 0.6
2019-Dec-07 13:01 291 0 gusting 4 0.6
2019-Dec-07 12:51 302 1 gusting 6 0.6
2019-Dec-07 12:41 294 1 gusting 5 0.6
2019-Dec-07 12:31 282 0 gusting 3 0.6
2019-Dec-07 12:21 274 1 gusting 4 0.6
2019-Dec-07 12:11 268 0.6
2019-Dec-07 12:01 281 0 gusting 3 0.6
2019-Dec-07 11:51 302 0 gusting 3 0.6
2019-Dec-07 11:41 282 0 gusting 5 -0.0
2019-Dec-07 11:31 265 -0.0
2019-Dec-07 11:21 284 0 gusting 2 -0.0
2019-Dec-07 11:11 325 -0.0
2019-Dec-07 11:01 297 -0.0
2019-Dec-07 10:51 180 -0.0
2019-Dec-07 10:41 270 -0.0
2019-Dec-07 10:31 283 -0.0
2019-Dec-07 10:21 292 -0.0
2019-Dec-07 10:11 308 -0.0
2019-Dec-07 10:01 315 0.6
2019-Dec-07 09:51 293 0.6
2019-Dec-07 09:41 270 0.6
2019-Dec-07 09:31 0.6
2019-Dec-07 09:21 265 0 gusting 4 1.1
2019-Dec-07 09:11 284 0.6
2019-Dec-07 09:01 282 0 gusting 4 1.1
2019-Dec-07 08:51 283 0 gusting 6 1.1
2019-Dec-07 08:41 287 0 gusting 5 1.1
2019-Dec-07 08:31 287 0 gusting 6 1.1
2019-Dec-07 08:21 265 0 gusting 3 1.1
2019-Dec-07 08:11 289 1 gusting 5 1.1
2019-Dec-07 08:01 272 1 gusting 6 1.7
2019-Dec-07 07:51 292 0 gusting 4 1.7
2019-Dec-07 07:41 279 1 gusting 4 1.7
2019-Dec-07 07:31 282 1 gusting 6 1.7
2019-Dec-07 07:21 270 0 gusting 4 1.7
2019-Dec-07 07:11 296 0 gusting 3 1.7
2019-Dec-07 07:01 283 0 gusting 3 1.7
2019-Dec-07 06:51 283 1 gusting 6 2.2
2019-Dec-07 06:41 296 1 gusting 5 2.2
2019-Dec-07 06:31 275 1 gusting 6 2.2
2019-Dec-07 06:21 289 2 gusting 10 2.2
2019-Dec-07 06:11 279 2 gusting 6 2.2
2019-Dec-07 06:01 266 1 gusting 7 2.8
2019-Dec-07 05:51 290 1 gusting 4 2.8
2019-Dec-07 05:41 292 1 gusting 7 2.8
2019-Dec-07 05:31 288 1 gusting 6 2.8
2019-Dec-07 05:21 289 1 gusting 6 2.8
2019-Dec-07 05:11 284 0 gusting 2 3.3
2019-Dec-07 05:01 285 1 gusting 5 3.3
2019-Dec-07 04:51 280 0 gusting 4 3.3
2019-Dec-07 04:41 296 2 gusting 8 3.3
2019-Dec-07 04:31 279 1 gusting 4 3.9
2019-Dec-07 04:21 279 3 gusting 8 3.9
2019-Dec-07 04:11 288 2 gusting 7 3.9
2019-Dec-07 04:01 298 0 gusting 4 3.9
2019-Dec-07 03:51 280 1 gusting 5 3.9
2019-Dec-07 03:41 282 1 gusting 6 4.4
2019-Dec-07 03:31 320 2 gusting 6 4.4
2019-Dec-07 03:21 274 4 gusting 8 5.0
2019-Dec-07 03:11 286 3 gusting 10 5.0
2019-Dec-07 03:01 301 1 gusting 7 5.0
2019-Dec-07 02:51 297 1 gusting 5 5.6
2019-Dec-07 02:41 280 2 gusting 6 5.6
2019-Dec-07 02:31 309 2 gusting 6 5.6
2019-Dec-07 02:21 301 2 gusting 6 6.1
2019-Dec-07 02:11 276 2 gusting 6 6.1
2019-Dec-07 02:01 275 4 gusting 8 6.7
2019-Dec-07 01:51 313 3 gusting 7 7.2
2019-Dec-07 01:41 343 1 gusting 4 7.8
2019-Dec-07 01:31 282 3 gusting 9 7.8
2019-Dec-07 01:21 291 4 gusting 9 8.3
2019-Dec-07 01:11 288 3 gusting 10 8.3
2019-Dec-07 01:01 286 4 gusting 8 8.9
2019-Dec-07 00:51 287 3 gusting 8 8.9
2019-Dec-07 00:41 272 1 gusting 7 8.9
2019-Dec-07 00:31 226 1 gusting 8 9.4
2019-Dec-07 00:21 262 2 gusting 6 9.4
2019-Dec-07 00:11 249 2 gusting 7 8.9
2019-Dec-07 00:01 290 0 gusting 4 8.9
2019-Dec-06 23:51 291 2 gusting 7 8.9
2019-Dec-06 23:41 264 1 gusting 10 8.9
2019-Dec-06 23:31 278 1 gusting 5 8.9
2019-Dec-06 23:21 273 2 gusting 6 8.9
2019-Dec-06 23:11 274 4 gusting 9 8.9
2019-Dec-06 23:01 285 3 gusting 8 8.9
2019-Dec-06 22:51 267 2 gusting 7 8.9
2019-Dec-06 22:41 273 4 gusting 8 8.9
2019-Dec-06 22:31 263 4 gusting 6 8.9
2019-Dec-06 22:21 257 4 gusting 7 8.9
2019-Dec-06 22:11 259 3 gusting 6 8.9
2019-Dec-06 22:01 280 3 gusting 6 8.9
2019-Dec-06 21:51 260 3 gusting 7 8.9
2019-Dec-06 21:41 249 4 gusting 9 8.9
2019-Dec-06 21:31 250 3 gusting 10 8.9
2019-Dec-06 21:21 224 4 gusting 6 8.9
2019-Dec-06 21:11 246 4 gusting 8 8.9
2019-Dec-06 21:01 237 4 gusting 8 8.9
2019-Dec-06 20:51 270 2 gusting 6 8.9
2019-Dec-06 20:41 266 3 gusting 6 8.9
2019-Dec-06 20:31 274 2 gusting 7 8.9
2019-Dec-06 20:21 253 3 gusting 6 8.9
2019-Dec-06 20:11 236 2 gusting 7 8.9
2019-Dec-06 20:01 255 2 gusting 6 8.9
2019-Dec-06 19:51 241 2 gusting 6 8.9
2019-Dec-06 19:41 251 4 gusting 8 8.9
2019-Dec-06 19:31 242 4 gusting 8 8.9
2019-Dec-06 19:21 253 3 gusting 6 8.9
2019-Dec-06 19:11 270 3 gusting 6 8.9
2019-Dec-06 19:01 268 3 gusting 7 8.9
2019-Dec-06 18:51 265 3 gusting 7 8.3
2019-Dec-06 18:41 227 3 gusting 8 7.8
2019-Dec-06 18:31 280 1 gusting 6 7.8
2019-Dec-06 18:21 223 2 gusting 6 7.2
2019-Dec-06 18:11 254 1 gusting 5 7.2
2019-Dec-06 18:01 243 2 gusting 6 7.2
2019-Dec-06 17:51 160 3 gusting 8 6.7
2019-Dec-06 17:41 189 3 gusting 6 6.7
2019-Dec-06 17:31 189 3 gusting 7 6.7
2019-Dec-06 17:21 224 3 gusting 7 6.7
2019-Dec-06 17:11 241 3 gusting 9 6.7
2019-Dec-06 17:01 246 3 gusting 7 6.7
2019-Dec-06 16:51 267 3 gusting 8 6.7
2019-Dec-06 16:41 255 3 gusting 7 6.7
2019-Dec-06 16:31 271 4 gusting 8 6.7
2019-Dec-06 16:21 298 2 gusting 6 6.7
2019-Dec-06 16:11 266 4 gusting 11 6.1
2019-Dec-06 16:01 227 2 gusting 6 6.1
2019-Dec-06 15:51 263 4 gusting 9 5.6
2019-Dec-06 15:41 249 3 gusting 7 5.0
2019-Dec-06 15:31 239 3 gusting 6 5.0
2019-Dec-06 15:21 199 2 gusting 6 5.0
2019-Dec-06 15:11 242 1 gusting 5 5.0
2019-Dec-06 15:01 269 1 gusting 4 5.0
2019-Dec-06 14:51 273 2 gusting 6 4.4
2019-Dec-06 14:41 233 1 gusting 5 4.4
2019-Dec-06 14:31 219 3 gusting 6 4.4
2019-Dec-06 14:21 271 3 gusting 7 4.4
2019-Dec-06 14:11 258 2 gusting 7 4.4
2019-Dec-06 14:01 245 2 gusting 6 3.9
2019-Dec-06 13:51 163 0 gusting 4 3.9
2019-Dec-06 13:41 219 3.3
2019-Dec-06 13:31 225 2.8
2019-Dec-06 13:21 256 2.8
2019-Dec-06 13:11 240 2.8
2019-Dec-06 13:01 257 0 gusting 2 2.2
2019-Dec-06 12:51 251 0 gusting 2 2.2
2019-Dec-06 12:41 242 2.2
2019-Dec-06 12:31 251 1.7
2019-Dec-06 12:21 247 1.7
2019-Dec-06 12:11 237 1.7
2019-Dec-06 12:01 266 1.7
2019-Dec-06 11:51 247 1.7
2019-Dec-06 11:41 247 1.1
2019-Dec-06 11:31 203 1.1
2019-Dec-06 11:21 270 1.1
2019-Dec-06 11:11 270 0.6
2019-Dec-06 11:01 270 0.6
2019-Dec-06 10:51 270 0.6
2019-Dec-06 10:41 270 -0.0
2019-Dec-06 10:31 248 0.6
2019-Dec-06 10:21 248 0.6
2019-Dec-06 10:11 248 0.6
2019-Dec-06 10:01 315 0.6
2019-Dec-06 09:51 270 0.6
2019-Dec-06 09:41 225 1.1
2019-Dec-06 09:31 270 1.1
2019-Dec-06 09:21 293 1.1
2019-Dec-06 09:11 294 1.1
2019-Dec-06 09:01 270 1.1
2019-Dec-06 08:51 270 1.7
2019-Dec-06 08:41 270 1.7
2019-Dec-06 08:31 242 1.7
2019-Dec-06 08:21 280 1.1
2019-Dec-06 08:11 260 1.7
2019-Dec-06 08:01 261 0 gusting 6 1.7
2019-Dec-06 07:51 278 0 gusting 4 1.7
2019-Dec-06 07:41 273 0 gusting 4 1.7
2019-Dec-06 07:31 267 0 gusting 4 1.7
2019-Dec-06 07:21 283 0 gusting 6 1.7
2019-Dec-06 07:11 309 0 gusting 6 1.7
2019-Dec-06 07:01 264 0 gusting 4 1.7
2019-Dec-06 06:51 270 1 gusting 4 1.7
2019-Dec-06 06:41 256 1.7
2019-Dec-06 06:31 261 0 gusting 6 1.7
2019-Dec-06 06:21 270 1 gusting 9 1.7
2019-Dec-06 06:11 265 0 gusting 4 1.7
2019-Dec-06 06:01 231 0 gusting 6 1.7
2019-Dec-06 05:51 272 2.2
2019-Dec-06 05:41 270 2.2
2019-Dec-06 05:31 273 0 gusting 4 2.2
2019-Dec-06 05:21 294 0 gusting 4 2.2
2019-Dec-06 05:11 290 1 gusting 5 2.2
2019-Dec-06 05:01 281 2 gusting 6 2.2
2019-Dec-06 04:51 293 1 gusting 6 2.2
2019-Dec-06 04:41 274 0 gusting 5 2.2
2019-Dec-06 04:31 276 0 gusting 4 2.2
2019-Dec-06 04:21 280 2 gusting 7 2.8
2019-Dec-06 04:11 281 0 gusting 3 2.8
2019-Dec-06 04:01 288 2 gusting 6 2.8
2019-Dec-06 03:51 279 1 gusting 7 2.8
2019-Dec-06 03:41 275 1 gusting 5 2.8
2019-Dec-06 03:31 275 2 gusting 9 2.8
2019-Dec-06 03:21 300 1 gusting 7 2.8
2019-Dec-06 03:11 289 1 gusting 5 2.8
2019-Dec-06 03:01 282 2 gusting 8 2.8
2019-Dec-06 02:51 295 1 gusting 5 2.8
2019-Dec-06 02:41 281 2 gusting 7 2.8
2019-Dec-06 02:31 291 1 gusting 6 2.8
2019-Dec-06 02:21 271 0 gusting 3 2.8
2019-Dec-06 02:11 268 1 gusting 6 2.8
2019-Dec-06 02:01 303 1 gusting 4 2.8
2019-Dec-06 01:51 275 1 gusting 6 2.8
2019-Dec-06 01:41 285 3 gusting 7 2.8
2019-Dec-06 01:31 292 2 gusting 6 2.8
2019-Dec-06 01:21 283 2 gusting 9 3.3
2019-Dec-06 01:11 268 2 gusting 10 3.3
2019-Dec-06 01:01 286 2 gusting 6 3.3
2019-Dec-06 00:51 270 1 gusting 6 3.3
2019-Dec-06 00:41 263 1 gusting 12 3.3
2019-Dec-06 00:31 287 1 gusting 13 2.8
2019-Dec-06 00:21 266 2 gusting 7 2.8
2019-Dec-06 00:11 272 0 gusting 4 2.8
2019-Dec-06 00:01 275 0 gusting 4 3.3
2019-Dec-05 23:51 296 0 gusting 2 3.3
2019-Dec-05 23:41 253 0 gusting 6 3.3
2019-Dec-05 23:31 275 0 gusting 6 3.9
2019-Dec-05 23:21 287 1 gusting 4 3.9
2019-Dec-05 23:11 292 0 gusting 6 3.9
2019-Dec-05 23:01 266 1 gusting 6 3.9
2019-Dec-05 22:51 263 1 gusting 7 3.9
2019-Dec-05 22:41 271 1 gusting 6 3.9
2019-Dec-05 22:31 288 1 gusting 6 3.9
2019-Dec-05 22:21 285 1 gusting 5 3.9
2019-Dec-05 22:11 277 2 gusting 9 3.9
2019-Dec-05 22:01 274 1 gusting 6 3.9
2019-Dec-05 21:51 286 1 gusting 6 3.9
2019-Dec-05 21:41 289 1 gusting 7 3.9
2019-Dec-05 21:31 282 2 gusting 7 4.4
2019-Dec-05 21:21 276 1 gusting 4 4.4
2019-Dec-05 21:11 292 1 gusting 6 4.4
2019-Dec-05 21:01 284 0 gusting 7 5.0
2019-Dec-05 20:51 287 3 gusting 8 5.0
2019-Dec-05 20:41 289 3 gusting 7 5.0
2019-Dec-05 20:31 296 1 gusting 9 5.0
2019-Dec-05 20:21 275 1 gusting 8 5.0
2019-Dec-05 20:11 275 1 gusting 6 5.0
2019-Dec-05 20:01 300 2 gusting 6 5.0
2019-Dec-05 19:51 304 2 gusting 6 5.0
2019-Dec-05 19:41 279 3 gusting 6 5.0
2019-Dec-05 19:31 299 2 gusting 7 5.0
2019-Dec-05 19:21 280 2 gusting 7 5.0
2019-Dec-05 19:11 293 3 gusting 7 5.0
2019-Dec-05 19:01 281 4 gusting 8 5.6
2019-Dec-05 18:51 299 3 gusting 6 6.1
2019-Dec-05 18:41 272 3 gusting 6 5.6
2019-Dec-05 18:31 266 4 gusting 7 5.0
2019-Dec-05 18:21 287 5 gusting 9 5.0
2019-Dec-05 18:11 278 3 gusting 11 5.6
2019-Dec-05 18:01 295 4 gusting 10 5.6
2019-Dec-05 17:51 305 3 gusting 8 6.1
2019-Dec-05 17:41 295 4 gusting 7 5.6
2019-Dec-05 17:31 281 3 gusting 6 6.1
2019-Dec-05 17:21 297 3 gusting 7 5.6
2019-Dec-05 17:11 297 4 gusting 10 5.0
2019-Dec-05 17:01 294 3 gusting 8 5.0
2019-Dec-05 16:51 278 3 gusting 7 5.0
2019-Dec-05 16:41 281 4 gusting 10 5.0
2019-Dec-05 16:31 292 4 gusting 11 5.0
2019-Dec-05 16:21 277 4 gusting 12 5.0
2019-Dec-05 16:11 283 4 gusting 11 5.6
2019-Dec-05 16:01 321 2 gusting 10 6.7